����������;��������(kWh)
2016-10-31 00:00;76,7
2016-10-31 00:15;76,25
2016-10-31 00:30;74,4
2016-10-31 00:45;78,35
2016-10-31 01:00;79,05
2016-10-31 01:15;81,25
2016-10-31 01:30;83,25
2016-10-31 01:45;82,1
2016-10-31 02:00;80,65
2016-10-31 02:15;76,35
2016-10-31 02:30;74,75
2016-10-31 02:45;73,6
2016-10-31 03:00;74,95
2016-10-31 03:15;71,8
2016-10-31 03:30;74,25
2016-10-31 03:45;74,5
2016-10-31 04:00;73,1
2016-10-31 04:15;72,7
2016-10-31 04:30;72,95
2016-10-31 04:45;73,1
2016-10-31 05:00;73,85
2016-10-31 05:15;75,4
2016-10-31 05:30;74,85
2016-10-31 05:45;78,2
2016-10-31 06:00;78,85
2016-10-31 06:15;79,3
2016-10-31 06:30;83,3
2016-10-31 06:45;85,2
2016-10-31 07:00;81,3
2016-10-31 07:15;84,2
2016-10-31 07:30;83,75
2016-10-31 07:45;87,45
2016-10-31 08:00;88,55
2016-10-31 08:15;88,65
2016-10-31 08:30;93,95
2016-10-31 08:45;108,2
2016-10-31 09:00;117,9
2016-10-31 09:15;131,85
2016-10-31 09:30;138,5
2016-10-31 09:45;143,25
2016-10-31 10:00;142
2016-10-31 10:15;143,35
2016-10-31 10:30;141,35
2016-10-31 10:45;146,7
2016-10-31 11:00;150,15
2016-10-31 11:15;159,25
2016-10-31 11:30;163,05
2016-10-31 11:45;160,05
2016-10-31 12:00;165,6
2016-10-31 12:15;169
2016-10-31 12:30;180,8
2016-10-31 12:45;184,6
2016-10-31 13:00;175,75
2016-10-31 13:15;183,6
2016-10-31 13:30;186,1
2016-10-31 13:45;185,2
2016-10-31 14:00;179,3
2016-10-31 14:15;182,1
2016-10-31 14:30;175,3
2016-10-31 14:45;171,65
2016-10-31 15:00;163,75
2016-10-31 15:15;165,55
2016-10-31 15:30;161,55
2016-10-31 15:45;159,05
2016-10-31 16:00;151,9
2016-10-31 16:15;147,25
2016-10-31 16:30;153
2016-10-31 16:45;147,8
2016-10-31 17:00;142,15
2016-10-31 17:15;144,5
2016-10-31 17:30;144,55
2016-10-31 17:45;149,3
2016-10-31 18:00;146,2
2016-10-31 18:15;143,5
2016-10-31 18:30;135,8
2016-10-31 18:45;133,25
2016-10-31 19:00;132,25
2016-10-31 19:15;118,75
2016-10-31 19:30;117,15
2016-10-31 19:45;114,25
2016-10-31 20:00;103,95
2016-10-31 20:15;104,65
2016-10-31 20:30;101,2
2016-10-31 20:45;100,85
2016-10-31 21:00;102,4
2016-10-31 21:15;95,55
2016-10-31 21:30;98,8
2016-10-31 21:45;95,3
2016-10-31 22:00;89,8
2016-10-31 22:15;84,85
2016-10-31 22:30;86
2016-10-31 22:45;87,05
2016-10-31 23:00;88,05
2016-10-31 23:15;89,15
2016-10-31 23:30;89,3
2016-10-31 23:45;90,15
2016-11-01 00:00;89,15
2016-11-01 00:15;78,95
2016-11-01 00:30;80,15
2016-11-01 00:45;79,15
2016-11-01 01:00;81,4
2016-11-01 01:15;80,25
2016-11-01 01:30;82,2
2016-11-01 01:45;80,3
2016-11-01 02:00;78,25
2016-11-01 02:15;81,4
2016-11-01 02:30;79,05
2016-11-01 02:45;79,65
2016-11-01 03:00;79,3
2016-11-01 03:15;79,35
2016-11-01 03:30;79,25
2016-11-01 03:45;76,7
2016-11-01 04:00;79,75
2016-11-01 04:15;78,05
2016-11-01 04:30;77,35
2016-11-01 04:45;78,8
2016-11-01 05:00;78,7
2016-11-01 05:15;81,7
2016-11-01 05:30;78
2016-11-01 05:45;83,5
2016-11-01 06:00;81,45
2016-11-01 06:15;83,35
2016-11-01 06:30;91,25
2016-11-01 06:45;86,95
2016-11-01 07:00;90,15
2016-11-01 07:15;84,05
2016-11-01 07:30;86,45
2016-11-01 07:45;92,25
2016-11-01 08:00;89,65
2016-11-01 08:15;90,35
2016-11-01 08:30;106,45
2016-11-01 08:45;121,1
2016-11-01 09:00;134,05
2016-11-01 09:15;142,95
2016-11-01 09:30;145,5
2016-11-01 09:45;148
2016-11-01 10:00;147,55
2016-11-01 10:15;156,95
2016-11-01 10:30;158,3
2016-11-01 10:45;163,95
2016-11-01 11:00;169,7
2016-11-01 11:15;161,05
2016-11-01 11:30;171,05
2016-11-01 11:45;165,85
2016-11-01 12:00;169,95
2016-11-01 12:15;169,1
2016-11-01 12:30;170,6
2016-11-01 12:45;166,55
2016-11-01 13:00;157,55
2016-11-01 13:15;160,75
2016-11-01 13:30;160,15
2016-11-01 13:45;164,25
2016-11-01 14:00;164,9
2016-11-01 14:15;158,1
2016-11-01 14:30;159,7
2016-11-01 14:45;150,3
2016-11-01 15:00;155,2
2016-11-01 15:15;143,6
2016-11-01 15:30;145,5
2016-11-01 15:45;146,9
2016-11-01 16:00;143,3
2016-11-01 16:15;140,1
2016-11-01 16:30;136,1
2016-11-01 16:45;133,85
2016-11-01 17:00;130,3
2016-11-01 17:15;120,8
2016-11-01 17:30;121,75
2016-11-01 17:45;124,4
2016-11-01 18:00;125,7
2016-11-01 18:15;123,4
2016-11-01 18:30;127,3
2016-11-01 18:45;126,1
2016-11-01 19:00;124,4
2016-11-01 19:15;127,5
2016-11-01 19:30;119,9
2016-11-01 19:45;122,95
2016-11-01 20:00;115,05
2016-11-01 20:15;114,8
2016-11-01 20:30;113,3
2016-11-01 20:45;117,4
2016-11-01 21:00;111,45
2016-11-01 21:15;98,9
2016-11-01 21:30;101,3
2016-11-01 21:45;99,6
2016-11-01 22:00;96
2016-11-01 22:15;90,45
2016-11-01 22:30;88,6
2016-11-01 22:45;84,3
2016-11-01 23:00;83,3
2016-11-01 23:15;82,2
2016-11-01 23:30;78,85
2016-11-01 23:45;78,95
2016-11-02 00:00;79,25
2016-11-02 00:15;80,75
2016-11-02 00:30;83,25
2016-11-02 00:45;84,1
2016-11-02 01:00;81,85
2016-11-02 01:15;86,3
2016-11-02 01:30;84,4
2016-11-02 01:45;86,5
2016-11-02 02:00;83,6
2016-11-02 02:15;76,9
2016-11-02 02:30;78,2
2016-11-02 02:45;74,55
2016-11-02 03:00;76,9
2016-11-02 03:15;74,3
2016-11-02 03:30;76,05
2016-11-02 03:45;73,5
2016-11-02 04:00;74,7
2016-11-02 04:15;74,5
2016-11-02 04:30;73,6
2016-11-02 04:45;74,75
2016-11-02 05:00;74,1
2016-11-02 05:15;78,95
2016-11-02 05:30;76,5
2016-11-02 05:45;80,3
2016-11-02 06:00;75,1
2016-11-02 06:15;83,4
2016-11-02 06:30;84,6
2016-11-02 06:45;77,95
2016-11-02 07:00;82,85
2016-11-02 07:15;80,7
2016-11-02 07:30;82,9
2016-11-02 07:45;82,4
2016-11-02 08:00;87,1
2016-11-02 08:15;82,95
2016-11-02 08:30;88
2016-11-02 08:45;100,15
2016-11-02 09:00;110
2016-11-02 09:15;113,65
2016-11-02 09:30;119,35
2016-11-02 09:45;121,1
2016-11-02 10:00;123,6
2016-11-02 10:15;126,8
2016-11-02 10:30;132,2
2016-11-02 10:45;130,6
2016-11-02 11:00;141,45
2016-11-02 11:15;143,5
2016-11-02 11:30;148,35
2016-11-02 11:45;139,4
2016-11-02 12:00;150,3
2016-11-02 12:15;142,45
2016-11-02 12:30;145,9
2016-11-02 12:45;148,25
2016-11-02 13:00;144,85
2016-11-02 13:15;141,25
2016-11-02 13:30;144,9
2016-11-02 13:45;143,15
2016-11-02 14:00;143,25
2016-11-02 14:15;138,9
2016-11-02 14:30;136,35
2016-11-02 14:45;134,45
2016-11-02 15:00;130,4
2016-11-02 15:15;128,6
2016-11-02 15:30;127,95
2016-11-02 15:45;125,2
2016-11-02 16:00;121,35
2016-11-02 16:15;119,35
2016-11-02 16:30;119,5
2016-11-02 16:45;118,35
2016-11-02 17:00;115,25
2016-11-02 17:15;118,95
2016-11-02 17:30;118,5
2016-11-02 17:45;125,25
2016-11-02 18:00;127,4
2016-11-02 18:15;130,3
2016-11-02 18:30;128,4
2016-11-02 18:45;126,9
2016-11-02 19:00;130,75
2016-11-02 19:15;125,5
2016-11-02 19:30;118,85
2016-11-02 19:45;112,65
2016-11-02 20:00;112,8
2016-11-02 20:15;105,35
2016-11-02 20:30;112,55
2016-11-02 20:45;103,85
2016-11-02 21:00;105,4
2016-11-02 21:15;103,45
2016-11-02 21:30;100,3
2016-11-02 21:45;98,65
2016-11-02 22:00;90,25
2016-11-02 22:15;91,5
2016-11-02 22:30;87,1
2016-11-02 22:45;87,9
2016-11-02 23:00;86,05
2016-11-02 23:15;82,4
2016-11-02 23:30;81,45
2016-11-02 23:45;80,15
2016-11-03 00:00;82,2
2016-11-03 00:15;80,45
2016-11-03 00:30;79,55
2016-11-03 00:45;79,75
2016-11-03 01:00;77,6
2016-11-03 01:15;80,1
2016-11-03 01:30;77,15
2016-11-03 01:45;79,05
2016-11-03 02:00;77,45
2016-11-03 02:15;77,15
2016-11-03 02:30;78,3
2016-11-03 02:45;75,9
2016-11-03 03:00;78,05
2016-11-03 03:15;76
2016-11-03 03:30;76,55
2016-11-03 03:45;78,95
2016-11-03 04:00;75,95
2016-11-03 04:15;76,45
2016-11-03 04:30;73,75
2016-11-03 04:45;76,35
2016-11-03 05:00;75,3
2016-11-03 05:15;78
2016-11-03 05:30;77,25
2016-11-03 05:45;79,85
2016-11-03 06:00;79,75
2016-11-03 06:15;82,9
2016-11-03 06:30;86,7
2016-11-03 06:45;82,9
2016-11-03 07:00;83,35
2016-11-03 07:15;78,35
2016-11-03 07:30;86,1
2016-11-03 07:45;88,45
2016-11-03 08:00;84,85
2016-11-03 08:15;87,6
2016-11-03 08:30;102,15
2016-11-03 08:45;110,3
2016-11-03 09:00;115,45
2016-11-03 09:15;132,2
2016-11-03 09:30;133,1
2016-11-03 09:45;136,45
2016-11-03 10:00;130,85
2016-11-03 10:15;134,3
2016-11-03 10:30;124,8
2016-11-03 10:45;129,75
2016-11-03 11:00;135,7
2016-11-03 11:15;136,2
2016-11-03 11:30;143,15
2016-11-03 11:45;146,4
2016-11-03 12:00;142,55
2016-11-03 12:15;140,2
2016-11-03 12:30;143,55
2016-11-03 12:45;145,6
2016-11-03 13:00;144,8
2016-11-03 13:15;143,7
2016-11-03 13:30;145,95
2016-11-03 13:45;142,85
2016-11-03 14:00;145,6
2016-11-03 14:15;138
2016-11-03 14:30;140,65
2016-11-03 14:45;142,95
2016-11-03 15:00;139,75
2016-11-03 15:15;142,35
2016-11-03 15:30;140,1
2016-11-03 15:45;140,15
2016-11-03 16:00;138,95
2016-11-03 16:15;141,2
2016-11-03 16:30;132,2
2016-11-03 16:45;128,2
2016-11-03 17:00;125,2
2016-11-03 17:15;125,95
2016-11-03 17:30;118,65
2016-11-03 17:45;121,7
2016-11-03 18:00;122,65
2016-11-03 18:15;121,45
2016-11-03 18:30;117,3
2016-11-03 18:45;118,1
2016-11-03 19:00;119,45
2016-11-03 19:15;111,05
2016-11-03 19:30;113,3
2016-11-03 19:45;107,2
2016-11-03 20:00;109,55
2016-11-03 20:15;98,15
2016-11-03 20:30;100,55
2016-11-03 20:45;100,75
2016-11-03 21:00;101,55
2016-11-03 21:15;101,15
2016-11-03 21:30;100,75
2016-11-03 21:45;98,05
2016-11-03 22:00;91,8
2016-11-03 22:15;90,1
2016-11-03 22:30;85,85
2016-11-03 22:45;80,95
2016-11-03 23:00;80,2
2016-11-03 23:15;78,7
2016-11-03 23:30;77,4
2016-11-03 23:45;78,5
2016-11-04 00:00;76,95
2016-11-04 00:15;79,95
2016-11-04 00:30;76,6
2016-11-04 00:45;79,35
2016-11-04 01:00;77,5
2016-11-04 01:15;76,8
2016-11-04 01:30;76,15
2016-11-04 01:45;75,3
2016-11-04 02:00;77,45
2016-11-04 02:15;74,5
2016-11-04 02:30;76,05
2016-11-04 02:45;77,1
2016-11-04 03:00;75,4
2016-11-04 03:15;77,1
2016-11-04 03:30;73,65
2016-11-04 03:45;76,35
2016-11-04 04:00;74,45
2016-11-04 04:15;75,45
2016-11-04 04:30;75,35
2016-11-04 04:45;74,55
2016-11-04 05:00;77,5
2016-11-04 05:15;75
2016-11-04 05:30;75,8
2016-11-04 05:45;77,2
2016-11-04 06:00;82,65
2016-11-04 06:15;85,8
2016-11-04 06:30;89,75
2016-11-04 06:45;90,65
2016-11-04 07:00;91,15
2016-11-04 07:15;86,1
2016-11-04 07:30;86,2
2016-11-04 07:45;82,9
2016-11-04 08:00;86,7
2016-11-04 08:15;86,85
2016-11-04 08:30;99,15
2016-11-04 08:45;105,9
2016-11-04 09:00;108,7
2016-11-04 09:15;112,1
2016-11-04 09:30;117,45
2016-11-04 09:45;114,25
2016-11-04 10:00;77
2016-11-04 10:15;14,8
2016-11-04 10:30;114,05
2016-11-04 10:45;120,4
2016-11-04 11:00;123,95
2016-11-04 11:15;129,7
2016-11-04 11:30;135,1
2016-11-04 11:45;135,45
2016-11-04 12:00;135,5
2016-11-04 12:15;135,65
2016-11-04 12:30;141,6
2016-11-04 12:45;148,25
2016-11-04 13:00;139,1
2016-11-04 13:15;143,15
2016-11-04 13:30;145,3
2016-11-04 13:45;141,3
2016-11-04 14:00;142,6
2016-11-04 14:15;139,5
2016-11-04 14:30;137,6
2016-11-04 14:45;136,1
2016-11-04 15:00;134,7
2016-11-04 15:15;130
2016-11-04 15:30;132,6
2016-11-04 15:45;129,6
2016-11-04 16:00;131,2
2016-11-04 16:15;123,35
2016-11-04 16:30;125,25
2016-11-04 16:45;121,05
2016-11-04 17:00;113,4
2016-11-04 17:15;115
2016-11-04 17:30;119,65
2016-11-04 17:45;122,2
2016-11-04 18:00;121,8
2016-11-04 18:15;121,75
2016-11-04 18:30;122,65
2016-11-04 18:45;117,75
2016-11-04 19:00;120,75
2016-11-04 19:15;113,3
2016-11-04 19:30;111,8
2016-11-04 19:45;108,05
2016-11-04 20:00;106,75
2016-11-04 20:15;101,75
2016-11-04 20:30;100,05
2016-11-04 20:45;108,95
2016-11-04 21:00;106,95
2016-11-04 21:15;107,65
2016-11-04 21:30;104,6
2016-11-04 21:45;103,75
2016-11-04 22:00;97,45
2016-11-04 22:15;89,7
2016-11-04 22:30;85,25
2016-11-04 22:45;83,15
2016-11-04 23:00;83,5
2016-11-04 23:15;78,1
2016-11-04 23:30;80,65
2016-11-04 23:45;78,9
2016-11-05 00:00;77,9
2016-11-05 00:15;79,5
2016-11-05 00:30;74,55
2016-11-05 00:45;76,75
2016-11-05 01:00;73,8
2016-11-05 01:15;74,8
2016-11-05 01:30;74,55
2016-11-05 01:45;74,2
2016-11-05 02:00;76,6
2016-11-05 02:15;73,85
2016-11-05 02:30;75,55
2016-11-05 02:45;75
2016-11-05 03:00;75,5
2016-11-05 03:15;75,65
2016-11-05 03:30;73,95
2016-11-05 03:45;75,1
2016-11-05 04:00;73,1
2016-11-05 04:15;73,85
2016-11-05 04:30;71,95
2016-11-05 04:45;73,85
2016-11-05 05:00;72,6
2016-11-05 05:15;72,75
2016-11-05 05:30;72,6
2016-11-05 05:45;71,35
2016-11-05 06:00;79,15
2016-11-05 06:15;78,85
2016-11-05 06:30;79,5
2016-11-05 06:45;79,25
2016-11-05 07:00;70,95
2016-11-05 07:15;70
2016-11-05 07:30;66,7
2016-11-05 07:45;71,05
2016-11-05 08:00;67,25
2016-11-05 08:15;68,25
2016-11-05 08:30;66,7
2016-11-05 08:45;63,35
2016-11-05 09:00;71,25
2016-11-05 09:15;77,55
2016-11-05 09:30;75,05
2016-11-05 09:45;70,5
2016-11-05 10:00;75,5
2016-11-05 10:15;73,2
2016-11-05 10:30;76,25
2016-11-05 10:45;72,2
2016-11-05 11:00;73,2
2016-11-05 11:15;69,45
2016-11-05 11:30;76,85
2016-11-05 11:45;71,15
2016-11-05 12:00;69,25
2016-11-05 12:15;69,2
2016-11-05 12:30;69
2016-11-05 12:45;69,7
2016-11-05 13:00;67,5
2016-11-05 13:15;72,5
2016-11-05 13:30;75,4
2016-11-05 13:45;72,9
2016-11-05 14:00;65,3
2016-11-05 14:15;70,75
2016-11-05 14:30;72,7
2016-11-05 14:45;73,25
2016-11-05 15:00;77,55
2016-11-05 15:15;77,25
2016-11-05 15:30;83
2016-11-05 15:45;88,05
2016-11-05 16:00;78,45
2016-11-05 16:15;81,1
2016-11-05 16:30;77,4
2016-11-05 16:45;79,9
2016-11-05 17:00;75
2016-11-05 17:15;78,05
2016-11-05 17:30;74,75
2016-11-05 17:45;79,95
2016-11-05 18:00;82,65
2016-11-05 18:15;89,3
2016-11-05 18:30;93,35
2016-11-05 18:45;95,25
2016-11-05 19:00;98,3
2016-11-05 19:15;97,75
2016-11-05 19:30;99
2016-11-05 19:45;102,9
2016-11-05 20:00;104,4
2016-11-05 20:15;101,8
2016-11-05 20:30;95,45
2016-11-05 20:45;98,75
2016-11-05 21:00;97,2
2016-11-05 21:15;99,5
2016-11-05 21:30;98,75
2016-11-05 21:45;93,6
2016-11-05 22:00;93
2016-11-05 22:15;96,4
2016-11-05 22:30;97,65
2016-11-05 22:45;96,15
2016-11-05 23:00;97,05
2016-11-05 23:15;92,55
2016-11-05 23:30;87,5
2016-11-05 23:45;89,9
2016-11-06 00:00;85,85
2016-11-06 00:15;86,55
2016-11-06 00:30;83,9
2016-11-06 00:45;86,6
2016-11-06 01:00;87,6
2016-11-06 01:15;85,3
2016-11-06 01:30;87,95
2016-11-06 01:45;84,7
2016-11-06 02:00;88,05
2016-11-06 02:15;86,1
2016-11-06 02:30;85,1
2016-11-06 02:45;85,65
2016-11-06 03:00;83,9
2016-11-06 03:15;85,45
2016-11-06 03:30;84,7
2016-11-06 03:45;84,9
2016-11-06 04:00;86,6
2016-11-06 04:15;83,7
2016-11-06 04:30;85,35
2016-11-06 04:45;83,4
2016-11-06 05:00;85,5
2016-11-06 05:15;82,7
2016-11-06 05:30;84,55
2016-11-06 05:45;87,5
2016-11-06 06:00;86,65
2016-11-06 06:15;92,05
2016-11-06 06:30;94,2
2016-11-06 06:45;91,85
2016-11-06 07:00;87,9
2016-11-06 07:15;87,1
2016-11-06 07:30;83,95
2016-11-06 07:45;80,8
2016-11-06 08:00;81,2
2016-11-06 08:15;76,3
2016-11-06 08:30;77,45
2016-11-06 08:45;75,15
2016-11-06 09:00;78,15
2016-11-06 09:15;73,65
2016-11-06 09:30;78,8
2016-11-06 09:45;78,2
2016-11-06 10:00;80,75
2016-11-06 10:15;85,35
2016-11-06 10:30;84,3
2016-11-06 10:45;88,95
2016-11-06 11:00;88,9
2016-11-06 11:15;85,85
2016-11-06 11:30;83,95
2016-11-06 11:45;86,85
2016-11-06 12:00;86,15
2016-11-06 12:15;90,2
2016-11-06 12:30;85,05
2016-11-06 12:45;87,5
2016-11-06 13:00;85,8
2016-11-06 13:15;86,9
2016-11-06 13:30;84,85
2016-11-06 13:45;84,8
2016-11-06 14:00;82,85
2016-11-06 14:15;79,2
2016-11-06 14:30;84,15
2016-11-06 14:45;81,35
2016-11-06 15:00;83,15
2016-11-06 15:15;86,35
2016-11-06 15:30;86,9
2016-11-06 15:45;88,6
2016-11-06 16:00;83,2
2016-11-06 16:15;83,3
2016-11-06 16:30;89,75
2016-11-06 16:45;89,9
2016-11-06 17:00;90,35
2016-11-06 17:15;89,05
2016-11-06 17:30;89,6
2016-11-06 17:45;92,3
2016-11-06 18:00;95,75
2016-11-06 18:15;97,75
2016-11-06 18:30;95,8
2016-11-06 18:45;97,35
2016-11-06 19:00;99,1
2016-11-06 19:15;97,8
2016-11-06 19:30;97,7
2016-11-06 19:45;96,15
2016-11-06 20:00;99,05
2016-11-06 20:15;98,75
2016-11-06 20:30;98,15
2016-11-06 20:45;100,25
2016-11-06 21:00;97,85
2016-11-06 21:15;99,7
2016-11-06 21:30;98,3
2016-11-06 21:45;96,15
2016-11-06 22:00;91,95
2016-11-06 22:15;85,05
2016-11-06 22:30;86,15
2016-11-06 22:45;87
2016-11-06 23:00;89,4
2016-11-06 23:15;86,25
2016-11-06 23:30;78,75
2016-11-06 23:45;80,9

